Terminal Aerodrome Forecast
Issued by NWS Caribou, ME

Home | Current Version | Previous Version | Text Only | Print | Product List | Glossary On
Versions: 1 2 3 4 5 6 7 8 9 10 11 12 13 14 15 16 17
000
FTUS41 KCAR 290000 AAA
TAFCAR
TAF AMD
KCAR 290045Z 2901/2924 34010KT 6SM -SHRA OVC013
     FM290530 35008KT P6SM SCT030
     FM290700 34006KT P6SM FEW050=

USA.gov is the U.S. government's official web portal to all federal, state and local government web resources and services.